Simultaneous Nadir Overpasses (SNOs) Predictions

Prediction of SNOs between GOES-15 and TERRA Satellite Orbit:

Table of predicted SNOs for the next 14.0 days since TLE Epoch: 4/8/2023
Index Date Time (GOES-15) GOES-15 Lat,Lon TERRA Lat,Lon Distance(km) Time Diff (sec)
1 04/09/2023 18:46:22 -0.16,-130.83 -0.39,-129.89 108.01 80
2 04/10/2023 07:09:24 0.17,-131.10 -0.62,-134.85 425.98 80
3 04/12/2023 06:50:39 0.18,-132.09 0.43,-131.00 124.58 80
4 04/12/2023 19:13:34 -0.18,-132.33 0.60,-135.92 408.05 80
5 04/14/2023 18:54:48 -0.19,-133.31 -0.42,-132.06 142.38 80
6 04/15/2023 07:17:52 0.19,-133.58 -0.51,-137.03 391.43 80
7 04/17/2023 06:59:05 0.19,-134.56 0.47,-133.16 158.85 80
8 04/17/2023 19:22:01 -0.19,-134.80 0.48,-138.09 374.05 80
9 04/19/2023 19:03:14 -0.19,-135.78 -0.54,-134.23 176.43 80
10 04/20/2023 07:26:17 0.20,-136.05 -0.45,-139.19 357.05 80
